This demonstration page uses our WeatherBlox Daily Observations layout. Learn more.

Left ArrowRight Arrow

53.62937, 11.41316

Hourly Observations for June 29, 2019

Temp ( °F °C ) Dew Point ( °F °C ) Humidity (%) Winds ( mph kmh ) Pressure ( in mb ) Visibility ( mi km ) Precip ( " mm )
6:50 am 06:50 Mostly Sunny 55 13 54 12 94 94 WSW 5 7 30.18 1022 7 11 N/A
7:20 am 07:20 Mostly Sunny 57 14 54 12 88 88 W 5 7 30.18 1022 7 11 N/A
7:50 am 07:50 Mostly Sunny 61 16 55 13 83 83 W 5 7 30.18 1022 7 11 N/A
8:20 am 08:20 Mostly Sunny 61 16 55 13 83 83 WSW 3 6 30.18 1022 7 11 N/A
8:50 am 08:50 Mostly Sunny 63 17 54 12 73 73 W 3 6 30.18 1022 7 11 N/A
9:20 am 09:20 Mostly Sunny 64 18 52 11 64 64 W 5 7 30.18 1022 7 11 N/A
9:50 am 09:50 Mostly Sunny 66 19 52 11 60 60 W 6 9 30.18 1022 7 11 N/A
10:20 am 10:20 Mostly Sunny 70 21 52 11 53 53 W 5 7 30.18 1022 7 11 N/A
10:50 am 10:50 Mostly Sunny 72 22 52 11 50 50 SW 7 11 30.18 1022 7 11 N/A
11:20 am 11:20 Mostly Sunny 73 23 50 10 44 44 WSW 8 13 30.15 1021 7 11 N/A
11:50 am 11:50 Mostly Sunny 75 24 50 10 41 41 SW 7 11 30.15 1021 7 11 N/A
12:20 pm 12:20 Mostly Sunny 75 24 50 10 41 41 WSW 6 9 30.15 1021 7 11 N/A
12:50 pm 12:50 Mostly Sunny 77 25 48 9 36 36 W 7 11 30.15 1021 7 11 N/A
1:20 pm 13:20 Mostly Sunny 79 26 50 10 37 37 VRB 6 9 30.15 1021 7 11 N/A
1:50 pm 13:50 Mostly Sunny 79 26 50 10 37 37 VRB 5 7 30.12 1020 7 11 N/A
2:20 pm 14:20 Mostly Sunny 81 27 50 10 34 34 SW 5 7 30.12 1020 7 11 N/A
2:50 pm 14:50 Mostly Sunny 81 27 52 11 37 37 VRB 7 11 30.12 1020 7 11 N/A
3:20 pm 15:20 Mostly Sunny 82 28 52 11 35 35 WSW 6 9 30.09 1019 7 11 N/A
3:50 pm 15:50 Mostly Sunny 82 28 50 10 32 32 SW 6 9 30.09 1019 7 11 N/A
4:20 pm 16:20 Mostly Sunny 82 28 50 10 32 32 W 6 9 30.09 1019 7 11 N/A
4:50 pm 16:50 Mostly Sunny 84 29 52 11 33 33 SW 6 9 30.09 1019 7 11 N/A
5:20 pm 17:20 Mostly Sunny 84 29 50 10 31 31 WSW 6 9 30.06 1018 7 11 N/A
5:50 pm 17:50 Mostly Sunny 84 29 50 10 31 31 WSW 5 7 30.06 1018 7 11 N/A
6:20 pm 18:20 Mostly Sunny 84 29 52 11 33 33 W 5 7 30.06 1018 7 11 N/A
6:50 pm 18:50 Mostly Sunny 84 29 52 11 33 33 VRB 2 4 30.03 1017 7 11 N/A
7:20 pm 19:20 Mostly Sunny 84 29 52 11 33 33 VRB 1 2 30.03 1017 7 11 N/A
7:50 pm 19:50 Mostly Sunny 82 28 54 12 37 37 VRB 2 4 30.03 1017 7 11 N/A
8:20 pm 20:20 Mostly Sunny 82 28 54 12 37 37 NE 1 2 30.03 1017 7 11 N/A
8:50 pm 20:50 Mostly Sunny 81 27 57 14 45 45 VRB 2 4 30.00 1016 7 11 N/A

Powered by AerisWeather